Location: Budapest
(47.4979°N, 19.0402°E)
Time: 10:15:34
(UTC+02:00)

ISS - Pass Details

Date: 06 October 2020
Orbit: 418 x 420 km, 51.6° (Epoch: 21 October)

Event Time Altitude Azimuth Distance (km) Brightness Sun altitude
Rises 18:45:57 0° 293° (WNW) 2,369 1.5 -6.4°
Reaches altitude 10° 18:48:06 10° 287° (WNW) 1,502 0.5 -6.8°
Maximum altitude 18:51:21 48° 213° (SSW) 558 -2.9 -7.3°
Drops below altitude 10° 18:54:36 10° 137° (SE) 1,496 -1.4 -7.9°
Enters shadow 18:55:47 - 134° (SE) 1,967 -0.8 -8.1°
